THORAD AGENA D DEB, 42506

Orbit data source: Space-Track

THORAD AGENA D DEB, 42506 is space debris in SSO originally from a launch on Wed, 08 Apr 1970 UTC launched from the Air Force Western Test Range (AFWTR). Debris objects in space refer to the collection of defunct objects orbiting the Earth. Examples of debris include non-operational satellites, rocket bodies, and fragments generated from explosions, collisions, or faulty payload assembly.

Loading next visibility...
Identifier
42506, 1970-025RL
Orbit
SSO
Country
Flag of USUS
Related business
Manufacturer
Unknown
Mission
Spacecraft
Bus & Motor
Unknown
Mass
Unknown
Launch date (UTC)
1970-04-08 (56 years ago)
Launch vehicle
Unknown
Launch site
Air Force Western Test Range (AFWTR)
Object type
Payload
Rocket body
Debris
Shape & HBR
Unknown shape, 0.1 m
Radar Cross Section
Small (<0.1 m²)

Expand to show TLE details & history
Last TLE update: 22 hours ago

TLE from 22 hours ago
0 THORAD AGENA D DEB
1 42506U 70025RL  25287.44829526  .00000493  00000-0  50326-3 0  9990
2 42506  99.5835 354.8212 0049434 237.3205 122.3174 13.81375477248953
Epoch: 2025-10-14T10:45Z
TLE epoch observation values (Epoch: 2025-10-14T10:45:32.710Z)
Latitude
-0.00002°
Longitude
170.19833°
Altitude
981.366 km
Speed
7.351 km/s
True Right ascension
23h 39m 17s
True Declination
0° 00' 00"
Sunlit
Object was in full shadow at epoch
Visualization orbit readout
Latitude
Unknown
Longitude
Unknown
Altitude
Unknown
Speed
Unknown
Apparent Right ascension
Unknown
Apparent Declination
Unknown
Sunlit
N/A
Visualization observer readout
Local Sidereal Time
02:54:07
Azimuth
Unknown
Elevation
Unknown
Doppler factor
Unknown
Orbital elements
Apogee altitude
992.522 km
Perigee altitude
920.009 km
Semi-major axis
7,334.403 km
Eccentricity
0.00494
Inclination
99.5835°
RAAN
354.8212°
Arg. of periapsis
237.3205°
True anomaly
122.79454°
Mean anomaly
122.3174°
Eccentric anomaly
122.55613°
Mean motion
3.45538 °/min
Orbital period
104.19 mins
BSTAR
0.00050326

Documentation

Showing up to 5 results
|